Location: Great Chart
(51.1333°N, 0.8333°E)
Time: 11:33:35
(UTC+00:00)

CZ-2D R/B - Pass Details

Date: 19 September 2020
Orbit: 791 x 846 km, 98.7° (Epoch: 30 October)

Event Time Altitude Azimuth Distance (km) Brightness Sun altitude
Rises 03:35:58 0° 5° (N) 3,369 5.8 -19.2°
Reaches altitude 10° 03:39:07 10° 347° (NNW) 2,421 4.7 -18.8°
Maximum altitude 03:42:25 17° 308° (NW) 1,957 3.9 -18.3°
Enters shadow 03:43:23 16° 295° (WNW) 1,994 3.8 -18.2°
